sat.trackr.live / text

‹ back to catalog

COSMOS 2501 (702K)

NORAD 40315 · 2014-075A

PAYLOAD ACTIVE UNKNOWN

§ Identity

Operator
Country
CIS
Launch date
2014-11-30
Launch site
PLMSC
Launch vehicle
Mass (kg)
RCS (m²)
18.90

Purposes: earth_obs, nav

External: N2YO · Heavens-Above · Gunter

§ Orbital elements

Epoch: 2026-05-24T08:50:39.037632Z

Period
675.73 min
Inclination
63.6148°
Eccentricity
0.0022388
Mean motion
2.13101372 rev/d
Perigee alt
19,072.8 km
Apogee alt
19,187.0 km
Semi-major
25,508.1 km
B*
0.0000e+0
RAAN
191.1969°
Arg perigee
211.5449°
Mean anomaly
148.3894°
Rev number
8,934

§ Raw data

COSMOS 2501 (702K)1 40315U 14075A   26144.36850738  .00000041  00000+0  00000+0 0  99902 40315  63.6148 191.1969 0022388 211.5449 148.3894  2.13101372 89349

JSON: /api/v1/satellites/40315 · /tle

For live sub-satellite position, see the globe view (requires WebGL).

§ Visibility from observer

Set your observer location to see the next 7 days of passes ≥ 10°. The values pass through the URL so the page stays shareable.

No JS? Fill the form by hand. The geolocation button needs JavaScript.